Naples, FL

6:39 PM EDT on July 23, 2016 (GMT -0400)
Naples Municipal

Weather History for KAPF - March, 2012

Change the Weather History Date:

Sunday, March 4, 2012

  Actual Average Record
Temperature  
Mean Temperature 66 °F 69 °F  
Max Temperature 77 °F 79 °F 87 °F (1989)
Min Temperature 55 °F 59 °F 33 °F (1980)
Degree Days  
Heating Degree Days 0 1  
Month to date heating degree days 0 4  
Since 1 July heating degree days 119 237  
Cooling Degree Days 1 5  
Month to date cooling degree days 31 20  
Year to date cooling degree days 305 211  
Growing Degree Days 17 (Base 50)    
Moisture  
Dew Point 56 °F    
Average Humidity 62    
Maximum Humidity 94    
Minimum Humidity 29    
Precipitation  
Precipitation 0.10 in 0.07 in 0.74 in (1957)
Month to date precipitation 0.10 0.25  
Year to date precipitation 3.48 4.20  
Snow  
Snow 0.00 in - - ()
Month to date snowfall 0.0  
Since 1 July snowfall 0.0  
Snow Depth 0.00 in    
Sea Level Pressure  
Sea Level Pressure 29.99 in    
Wind  
Wind Speed 14 mph (WNW)    
Max Wind Speed 28 mph    
Max Gust Speed 40 mph    
Visibility 8 miles    
Events Rain    
T = Trace of Precipitation, MM = Missing Value Source: NWS Daily Summary

Daily Weather History Graph

Daily Weather History Graph

Search for Another Location

Airport or City:

Trip Planner

Search our weather history database for the weather conditions in past years. The results will help you decide how hot, cold, wet, or windy it might be!

Date:

Astronomy

Mar. 04, 2012 Rise Set
Actual Time 6:47 AM EST 6:30 PM EST
Civil Twilight 6:24 AM EST 6:53 PM EST
Nautical Twilight 5:57 AM EST 7:20 PM EST
Astronomical Twilight 5:30 AM EST 7:47 PM EST
Moon 2:59 PM EST (3/4) 3:46 AM EST (3/4)
Length of Visible Light 12h 29m
Length of Day
11h 43m
Waxing Gibbous, 83% of the Moon is Illuminated
Mar 4
Waxing Gibbous
Mar 8
Full
Mar 14
Last Quarter
Mar 22
New
Mar 30
First Quarter

Hourly Weather History & Observations

Time (EST) Temp. Dew Point Humidity Pressure Visibility Wind Dir Wind Speed Gust Speed Precip Events Conditions
12:53 AM 77.0 °F 71.1 °F 82% 29.87 in 10.0 mi South 13.8 mph - N/A   Overcast
1:53 AM 77.0 °F 72.0 °F 84% 29.86 in 9.0 mi South 17.3 mph 23.0 mph N/A   Overcast
2:32 AM 77.0 °F 71.6 °F 83% 29.85 in 8.0 mi SSW 19.6 mph 27.6 mph N/A   Overcast
2:53 AM 77.0 °F 73.0 °F 88% 29.85 in 8.0 mi SSW 15.0 mph - N/A   Overcast
3:53 AM 75.9 °F 73.0 °F 91% 29.83 in 8.0 mi SSW 18.4 mph - N/A   Overcast
4:37 AM 75.2 °F 73.4 °F 94% 29.83 in 7.0 mi SSW 16.1 mph 24.2 mph N/A   Overcast
4:53 AM 75.9 °F 73.0 °F 91% 29.83 in 7.0 mi SSW 18.4 mph 27.6 mph N/A   Overcast
5:53 AM 75.9 °F 73.0 °F 91% 29.83 in 8.0 mi SSW 19.6 mph 29.9 mph N/A   Partly Cloudy
6:53 AM 77.0 °F 73.0 °F 88% 29.84 in 7.0 mi SSW 20.7 mph 27.6 mph N/A   Mostly Cloudy
7:53 AM 77.0 °F 72.0 °F 84% 29.86 in 6.0 mi SSW 18.4 mph 28.8 mph N/A   Haze
7:57 AM 75.2 °F 71.6 °F 89% 29.89 in 1.8 mi WSW 27.6 mph 39.1 mph 0.05 in Rain Heavy Rain
8:10 AM 71.6 °F 69.8 °F 94% 29.91 in 1.8 mi WSW 18.4 mph 32.2 mph 0.08 in Rain Light Rain
8:17 AM 71.6 °F 69.8 °F 94% 29.93 in 2.0 mi WNW 23.0 mph 33.4 mph 0.09 in Rain Light Rain
8:23 AM 69.8 °F 66.2 °F 88% 29.93 in 2.5 mi NW 19.6 mph 33.4 mph 0.10 in Rain Light Rain
8:30 AM 69.8 °F 66.2 °F 88% 29.95 in 6.0 mi NW 20.7 mph 34.5 mph 0.10 in   Overcast
8:53 AM 68.0 °F 63.0 °F 84% 29.98 in 6.0 mi NW 20.7 mph 40.3 mph 0.10 in   Haze
9:00 AM 66.2 °F 62.6 °F 88% 29.98 in 9.0 mi NW 20.7 mph 40.3 mph N/A   Overcast
9:53 AM 66.9 °F 59.0 °F 76% 30.01 in 9.0 mi NW 20.7 mph 32.2 mph N/A   Mostly Cloudy
10:41 AM 66.2 °F 55.4 °F 68% 30.04 in 10.0 mi NW 16.1 mph 31.1 mph N/A   Overcast
10:53 AM 66.9 °F 55.0 °F 66% 30.05 in 10.0 mi NW 11.5 mph 25.3 mph N/A   Overcast
11:53 AM 66.9 °F 52.0 °F 59% 30.07 in 10.0 mi NNW 16.1 mph 27.6 mph N/A   Partly Cloudy
12:53 PM 69.1 °F 45.0 °F 42% 30.06 in 10.0 mi NNW 12.7 mph 21.9 mph N/A   Clear
1:53 PM 70.0 °F 42.1 °F 36% 30.05 in 10.0 mi NW 17.3 mph 24.2 mph N/A   Clear
2:53 PM 71.1 °F 39.9 °F 32% 30.03 in 10.0 mi NW 15.0 mph 21.9 mph N/A   Clear
3:53 PM 71.1 °F 39.0 °F 31% 30.03 in 10.0 mi NNW 15.0 mph 20.7 mph N/A   Clear
4:53 PM 70.0 °F 37.0 °F 30% 30.06 in 10.0 mi NNW 15.0 mph 20.7 mph N/A   Clear
5:53 PM 66.0 °F 34.0 °F 30% 30.09 in 10.0 mi NNW 12.7 mph 19.6 mph N/A   Clear
6:53 PM 63.0 °F 33.1 °F 33% 30.12 in 10.0 mi North 5.8 mph 17.3 mph N/A   Clear
7:53 PM 62.1 °F 34.0 °F 35% 30.16 in 10.0 mi North 5.8 mph - N/A   Clear
8:53 PM 60.1 °F 32.0 °F 35% 30.18 in 10.0 mi North 10.4 mph - N/A   Clear
9:53 PM 57.9 °F 33.1 °F 39% 30.20 in 10.0 mi NNE 4.6 mph - N/A   Clear
10:53 PM 57.0 °F 34.0 °F 42% 30.22 in 10.0 mi North 6.9 mph - N/A   Clear
11:53 PM 55.0 °F 35.1 °F 47% 30.22 in 10.0 mi North 5.8 mph - N/A   Clear